ボアッティーニ彗星

C/2011 Y3 ( Boattini )

English version
Home page
Updated on February 10, 2013

---------------------------------------------------------------------

・ プロフィール

発見日 2011年12月25日
発見光度 18.9等
発見者 A. Boattini (Mount Lemmon)

・ 写真集

・ 軌道要素

Epoch 2011 Aug. 27.0 TT = JDT 2455800.5
T 2011 Aug. 22.83298 TT                                 MPC
q   3.4975606            (2000.0)            P               Q
n   0.02408022     Peri.  340.65411     +0.38065821     -0.81083668
a  11.8766987      Node    84.80425     +0.89631464     +0.20529210
e   0.7055107      Incl.   26.51327     +0.22741898     +0.54808671
P  40.9
From 51 observations 2011 Dec. 25-2012 Feb. 20, mean residual 0".5.

・ 光度変化

        m1 = 11.5 + 5 logΔ + 10.0 log r

---------------------------------------------------------------------

軌道要素はM.P.E.C. 2012-G45に掲載されたものです。
光度グラフはComet for Windowsで作成したものです。

---------------------------------------------------------------------

Copyright(C) Seiichi Yoshida (comet@aerith.net). All rights reserved.